Погода в Сортавале

Хотите узнать прогноз погоды в Сортавале? Тогда Вам сюда: Погода в Сортавале

Поиск расширенной информации на нашем сайте:

Полезная информация:

Новости сайта



02.01.2020
Опубликован Долгосрочный прогноз погоды по городам России и ближнего зарубежья на январь 2020 года.
Карты: Прогноз на январь и февраль 2020 года, Сравнение прогнозируемой аномалии приземной температуры воздуха на январь 2020 года по разным моделям.




Погода в Сортавале - сегодня

Время (UTC), дата Ветер
(°,м/с) 
Видим.   Явления Облачность Т
(°С)
Тd
(°С)
f(%) Тe
(°С)
Pmin
(гПа)
dP
(гПа)
Po
(мм)
O2
(г/м3)
Тmin Tmax R s Состояние
почвы
12 03.03.21 260 (З) 20000 м    9/4 600 м кучево-дожд., средняя 
[Cb cap|Ac trans]
+2.6 -2.8 68 +1  1004.9  -3.8  752  300           
15 03.03.21 240 (ЮЗ) 20000 м  слаб. ливневой снег  10/10 540 м кучево-дожд. 
[Cb cap]
+0.9 -0.4 91 1001.9  -3  750  301      0.8     
18 03.03.21 280 (З) 30000 м  в посл. час ливневой снег  10/6 750 м 
[Sc]
+0.7 -2.4 80 -1  999.9  -2  748  301    +3.2  0.8     
21 03.03.21 300 (СЗ) 50000 м    ясно 
-1.4 -5.3 75 -3  1000.2  0.3  748  304           
00 04.03.21 290 (З) 50000 м    3/0 верхняя 
[Ci fib]
-3.4 -7 76 -5  1001  0.7  749  306           
03 04.03.21 360 (С) 50000 м    3/0 верхняя 
[Ci fib]
-5.3 -8.4 79 -7  1001.7  0.7  749  309  -5.4         
06 04.03.21 360 (С) 40000 м  слаб. снег  10/8 1200 м средняя 
[Sc|Ac As]
-4.6 -8 77 -6  1001.9  0.2  750  308  -5.9    0.0  43  равномерный
сухой снег
100% 
09 04.03.21 360 (С) 50000 м  в посл. час ливневой снег  9/9 540 м кучево-дожд. 
[Cb cap]
-2.9 -6.9 74 -5  1002.4  0.5  750  306           
12 04.03.21 300 (СЗ) 50000 м  {ливн. осадки, снег}  9/9 800 м кучево-дожд. 
[Cb cap]
-2.2 -9.2 59 -5  1002.6  0.2  750  306           
15 04.03.21 360 (С) 50000 м    9/8 1200 м средняя 
[Sc|Ac trans]
-2.8 -11.5 51 -6  1002.9  0.3  750  307      0.0     
18 04.03.21 290 (З) 50000 м    9/0 средняя, верхняя 
[Ac trans|Ci fib]
-4.3 -9.6 66 -7  1003.5  0.6  751  308    -0.9  0.0     
21 04.03.21 310 (СЗ) 17000 м  слаб. ливневой снег  10/10 750 м кучево-дожд. 
[Cb cap]
-5.2 -7.9 81 -7  1004.6  1.1  752  310           
00 05.03.21 290 (З) 50000 м  {ливн. осадки}  9/3 600 м кучево-дожд., средняя, верхняя 
[Cb cap|Ac trans|Ci fib]
-7.8 -10.5 81 -8  1006.2  1.6  753  313           
03 05.03.21 330 (СЗ) 50000 м    4/0 средняя, верхняя 
[Ac trans|Ci fib]
-10.2 -11.6 89 -12  1007.2  754  317  -11    0.0     
06 05.03.21 350 (С) 50000 м    1/0 верхняя 
[Ci fib]
-9.9 -11.9 85 -12  1008.4  1.2  755  317  -11    0.0  43  равномерный
сухой снег
100% 
09 05.03.21 360 (С) 20000 м    3/3 1000 м 
[Sc]
-5.4 -9.9 71 -9  1009.7  1.3  755  312           
12 05.03.21 290 (З) 20000 м    8/8 1000 м 
[Sc]
-3.4 -10.5 58 -6  1010.9  1.2  756  310           
15 05.03.21 330 (СЗ) 50000 м  в посл. час ливневой снег  5/5 600 м кучево-дожд. 
[Cb cap]
-4.1 -10.9 59 -7  1012.2  1.3  757  311      0.0     
18 05.03.21 340 (С) 50000 м  {ливн. осадки}  5/0 верхняя 
[Ci fib]
-7.7 -11.8 72 -9  1013.9  1.7  759  316    -2.2  0.0     
21 05.03.21 тихо ()   50000 м    ясно 
-10.9 -13.5 81 -11  1014.7  0.7  759  320           
00 06.03.21 тихо ()   50000 м    ясно 
-12.9 -14.1 91 -13  1014.6  -0.1  759  322           
03 06.03.21 тихо ()   50000 м    ясно 
-17 -18.4 89 -17  1014  -0.6  759  327  -17.6         
06 06.03.21 тихо ()   20000 м    9/0 верхняя 
[Ci]
-15.3 -17 87 -15  1012.2  -1.8  757  325  -18.3      43  равномерный
сухой снег
100% 
09 06.03.21 160 (Ю) 20000 м    9/0 верхняя 
[Cs]
-6.1 -10.4 72 -8  1008.7  -3.4  755  312           
12 06.03.21 170 (Ю) 9000 м  слаб. снег  10/4 1000 м средняя 
[Sc|Ac As]
-3.6 -7 77 -7  1003.4  -5.3  751  307           
Время (UTC), дата Ветер
(°,м/с) 
Видим.   Явления Облачность Т
(°С)
Тd
(°С)
f(%) Тe
(°С)
Pmin
(гПа)
dP
(гПа)
Po
(мм)
O2
(г/м3)
Тmin Tmax R s Состояние
почвы

Для получения пояснительной информации подведите курсор к названию столбца.

ПОГОДА в Сортавале - архив

Всё, что Вы хотите узнать о погоде в Сортавале - удобно и подробно!

Выберите нужную дату (начиная с 1 января 2019* года) и нажмите кнопку "Найти".
Будут отображены архивные сводки погоды по пункту Сортавала, начиная с указанной даты.


Отображать данные в формате CSV (для использования в таблицах Excel)


Внимание! Наш архив погоды предназначен исключительно для личного некоммерческого использования в познавательных целях. Если Вам необходимы официальные справки о состоянии погоды (для производственных, юридических, коммерческих и т.п. целей), обращайтесь в органы Росгидромета.

*Примечание: данная дата относится к архиву по метеостанциям СССР (Россия, СНГ, Балтия).
Архив по метеостанциям Зарубежной Европы и Азии (кроме Китая) хранится 10 дней, по другим регионам земного шара (Китай, Африка, Америка, Австралия, Океания) - 1 день.

Сортавала - район местоположения метеостанции


Название, широта, долгота, высота метеостанции:
Сортавала 61.7°ш. 30.7°д. 19 м над ур. моря [Российская Федерация]

Дополнительная информация

В oтличие oт бoльшинства пoгoдных сайтoв мы публикуем пoдрoбную метеoинфoрмацию в детальнoм прoфессиoнальнoм фoрмате.

Характеристики температуры и влажнoсти вoздуха измеряются на высoте 2 м в тени вдали oт зданий и деревьев.
Скoрoсть ветра измеряется на высoте 10 м (на урoвне рoста челoвека скoрoсть ветра ниже в 1.5-2 раза). Если метеoстанция нахoдится в гoрoде или в лесу, тo скoрoсть ветра занижена на 2-4 м/с пo сравнению с oткрытым местoм. Скoрoсть ветра над акватoриями крупных рек и oзёр, а также на вершинах хoлмoв на 2-5 м/с выше, чем в oбычных услoвиях.
Атмoсфернoе давление в разных тoчках местнoсти мoжет значительнo oтличаться oт давления на метеoстанции, в зависимoсти oт услoвий рельефа (при пoдъёме на 10 м давление пoнижается примернo на 1 мм рт.ст.).